Weather History for Fosston, MN

Change the Weather History Date:

Thursday, May 9, 2013

  Actual Average Record
Temperature  
Mean Temperature 50 °F -  
Max Temperature 62 °F 64 °F 87 °F (2007)
Min Temperature 37 °F 38 °F 24 °F (1966)
Degree Days  
Heating Degree Days 16    
Moisture  
Dew Point 30 °F    
Average Humidity 51    
Maximum Humidity 75    
Minimum Humidity 25    
Precipitation  
Precipitation 0.00 in - - ()
Sea Level Pressure  
Sea Level Pressure 30.15 in    
Wind  
Wind Speed 11 mph (NE)    
Max Wind Speed 21 mph    
Max Gust Speed 29 mph    
Visibility 10 miles    
Events      
Averages and records for this station are not official NWS values.
T = Trace of Precipitation, MM = Missing Value Source: NWS Daily Summary

Daily Weather History Graph

Daily Weather History Graph

Search for Another Location

Airport:

Trip Planner

Search our weather history database for the weather conditions in past years. The results will help you decide how hot, cold, wet, or windy it might be!

Date:

Astronomy

May. 09, 2013 Rise Set
Actual Time 5:53 AM CDT 8:46 PM CDT
Civil Twilight 5:17 AM CDT 9:22 PM CDT
Nautical Twilight 4:32 AM CDT 10:08 PM CDT
Astronomical Twilight 3:37 AM CDT 11:03 PM CDT
Moon 5:40 AM CDT (5/9) 8:42 PM CDT (5/9)
Length of Visible Light 16h 04m
Length of Day
14h 53m
Waning Crescent, 0% of the Moon is Illuminated
May 9
Waning Crescent
May 9
New
May 17
First Quarter
May 24
Full
May 31
Last Quarter

Hourly Weather History & Observations

Time (CDT) Temp. Windchill Dew Point Humidity Pressure Visibility Wind Dir Wind Speed Gust Speed Precip Events Conditions
12:15 AM 46.4 °F 41.1 °F 37.4 °F 71% 30.10 in 10.0 mi NNE 11.5 mph 17.3 mph N/A   Clear
12:35 AM 46.4 °F 40.7 °F 35.6 °F 66% 30.10 in 10.0 mi NNE 12.7 mph - N/A   Clear
12:55 AM 46.4 °F 41.1 °F 35.6 °F 66% 30.11 in 10.0 mi NNE 11.5 mph 17.3 mph N/A   Clear
1:15 AM 44.6 °F 40.2 °F 33.8 °F 66% 30.11 in 10.0 mi NNE 8.1 mph - N/A   Clear
1:35 AM 44.6 °F 39.2 °F 33.8 °F 66% 30.11 in 10.0 mi NNE 10.4 mph 17.3 mph N/A   Clear
1:55 AM 44.6 °F 40.2 °F 33.8 °F 66% 30.11 in 10.0 mi NNE 8.1 mph - N/A   Clear
2:15 AM 42.8 °F 37.0 °F 33.8 °F 70% 30.10 in 10.0 mi NNE 10.4 mph - N/A   Clear
2:35 AM 42.8 °F 36.6 °F 32.0 °F 66% 30.11 in 10.0 mi North 11.5 mph - N/A   Clear
2:55 AM 42.8 °F 37.0 °F 32.0 °F 66% 30.11 in 10.0 mi North 10.4 mph - N/A   Clear
3:15 AM 42.8 °F 38.6 °F 33.8 °F 70% 30.11 in 10.0 mi NNE 6.9 mph - N/A   Clear
3:35 AM 41.0 °F 35.8 °F 32.0 °F 70% 30.12 in 10.0 mi NNE 8.1 mph - N/A   Clear
3:56 AM 41.0 °F 35.2 °F 32.0 °F 70% 30.11 in 10.0 mi NNE 9.2 mph - N/A   Clear
4:15 AM 39.2 °F 32.0 °F 30.2 °F 70% 30.12 in 10.0 mi North 11.5 mph - N/A   Clear
4:35 AM 39.2 °F 33.0 °F 32.0 °F 75% 30.13 in 10.0 mi North 9.2 mph - N/A   Clear
4:56 AM 37.4 °F 31.4 °F 30.2 °F 75% 30.13 in 10.0 mi NNE 8.1 mph - N/A   Clear
5:15 AM 37.4 °F 31.4 °F 30.2 °F 75% 30.14 in 10.0 mi North 8.1 mph - N/A   Clear
5:35 AM 37.4 °F 32.8 °F 30.2 °F 75% 30.14 in 10.0 mi NNE 5.8 mph - N/A   Clear
5:56 AM 37.4 °F 32.1 °F 30.2 °F 75% 30.15 in 10.0 mi NNE 6.9 mph - N/A   Clear
6:15 AM 37.4 °F 31.4 °F 30.2 °F 75% 30.16 in 10.0 mi NNE 8.1 mph - N/A   Clear
6:35 AM 37.4 °F 30.8 °F 30.2 °F 75% 30.16 in 10.0 mi NNE 9.2 mph - N/A   Clear
6:55 AM 39.2 °F 33.0 °F 30.2 °F 70% 30.17 in 10.0 mi NNE 9.2 mph - N/A   Clear
7:15 AM 39.2 °F 32.5 °F 30.2 °F 70% 30.17 in 10.0 mi NNE 10.4 mph - N/A   Clear
7:35 AM 39.2 °F 32.5 °F 32.0 °F 75% 30.17 in 10.0 mi NNE 10.4 mph - N/A   Clear
7:56 AM 41.0 °F 34.7 °F 32.0 °F 70% 30.18 in 10.0 mi NNE 10.4 mph - N/A   Clear
8:15 AM 42.8 °F 35.8 °F 32.0 °F 66% 30.18 in 10.0 mi NNE 13.8 mph 18.4 mph N/A   Clear
8:35 AM 44.6 °F 37.8 °F 33.8 °F 66% 30.18 in 10.0 mi NNE 15.0 mph - N/A   Clear
8:55 AM 44.6 °F 37.8 °F 33.8 °F 66% 30.18 in 10.0 mi NNE 15.0 mph 21.9 mph N/A   Clear
9:15 AM 46.4 °F 40.1 °F 33.8 °F 62% 30.18 in 10.0 mi NNE 15.0 mph 23.0 mph N/A   Clear
9:35 AM 46.4 °F 41.1 °F 33.8 °F 62% 30.18 in 10.0 mi NNE 11.5 mph 23.0 mph N/A   Clear
9:55 AM 48.2 °F - 33.8 °F 58% 30.18 in 10.0 mi NNE 18.4 mph 26.5 mph N/A   Clear
10:15 AM 50.0 °F - 32.0 °F 50% 30.18 in 10.0 mi NNE 19.6 mph 26.5 mph N/A   Clear
10:35 AM 51.8 °F - 30.2 °F 44% 30.18 in 10.0 mi NE 20.7 mph 28.8 mph N/A   Clear
10:55 AM 51.8 °F - 30.2 °F 44% 30.18 in 10.0 mi NE 20.7 mph 26.5 mph N/A   Clear
11:15 AM 51.8 °F - 32.0 °F 47% 30.19 in 10.0 mi NNE 17.3 mph 24.2 mph N/A   Clear
11:35 AM 53.6 °F - 33.8 °F 47% 30.19 in 10.0 mi NE 15.0 mph 21.9 mph N/A   Clear
12:15 PM 53.6 °F - 33.8 °F 47% 30.19 in 10.0 mi NE 13.8 mph 19.6 mph N/A   Clear
12:35 PM 55.4 °F - 33.8 °F 44% 30.19 in 10.0 mi NE 15.0 mph 21.9 mph N/A   Clear
12:55 PM 55.4 °F - 33.8 °F 44% 30.19 in 10.0 mi NE 15.0 mph 19.6 mph N/A   Clear
1:15 PM 57.2 °F - 33.8 °F 41% 30.19 in 10.0 mi NE 13.8 mph 19.6 mph N/A   Clear
1:35 PM 57.2 °F - 33.8 °F 41% 30.18 in 10.0 mi NE 13.8 mph 21.9 mph N/A   Clear
1:55 PM 57.2 °F - 33.8 °F 41% 30.17 in 10.0 mi NE 15.0 mph 21.9 mph N/A   Clear
2:15 PM 57.2 °F - 33.8 °F 41% 30.17 in 10.0 mi ENE 13.8 mph 20.7 mph N/A   Clear
2:35 PM 59.0 °F - 32.0 °F 36% 30.17 in 10.0 mi NE 13.8 mph 20.7 mph N/A   Clear
2:55 PM 60.8 °F - 30.2 °F 31% 30.17 in 10.0 mi ENE 17.3 mph 21.9 mph N/A   Clear
3:15 PM 60.8 °F - 30.2 °F 31% 30.16 in 10.0 mi NE 13.8 mph 20.7 mph N/A   Clear
3:35 PM 60.8 °F - 30.2 °F 31% 30.16 in 10.0 mi NE 16.1 mph 21.9 mph N/A   Clear
3:55 PM 60.8 °F - 30.2 °F 31% 30.16 in 10.0 mi NE 13.8 mph 18.4 mph N/A   Clear
4:15 PM 60.8 °F - 28.4 °F 29% 30.15 in 10.0 mi NE 15.0 mph 19.6 mph N/A   Clear
4:35 PM 62.6 °F - 28.4 °F 27% 30.15 in 10.0 mi NE 12.7 mph 18.4 mph N/A   Clear
4:55 PM 62.6 °F - 26.6 °F 26% 30.15 in 10.0 mi NE 11.5 mph 21.9 mph N/A   Clear
5:15 PM 62.6 °F - 26.6 °F 26% 30.15 in 10.0 mi NE 12.7 mph 19.6 mph N/A   Clear
5:35 PM 62.6 °F - 26.6 °F 26% 30.14 in 10.0 mi NNE 15.0 mph 21.9 mph N/A   Clear
5:55 PM 60.8 °F - 24.8 °F 25% 30.14 in 10.0 mi NE 11.5 mph 19.6 mph N/A   Clear
6:15 PM 60.8 °F - 24.8 °F 25% 30.14 in 10.0 mi NE 15.0 mph 20.7 mph N/A   Clear
6:35 PM 60.8 °F - 24.8 °F 25% 30.14 in 10.0 mi NE 12.7 mph 20.7 mph N/A   Clear
6:55 PM 60.8 °F - 24.8 °F 25% 30.14 in 10.0 mi NE 13.8 mph 19.6 mph N/A   Clear
7:15 PM 59.0 °F - 24.8 °F 27% 30.14 in 10.0 mi NE 12.7 mph 18.4 mph N/A   Clear
7:35 PM 57.2 °F - 24.8 °F 29% 30.14 in 10.0 mi NE 12.7 mph 18.4 mph N/A   Clear
7:55 PM 57.2 °F - 23.0 °F 27% 30.15 in 10.0 mi NE 10.4 mph 19.6 mph N/A   Clear
8:15 PM 55.4 °F - 23.0 °F 29% 30.15 in 10.0 mi NE 9.2 mph - N/A   Clear
8:35 PM 53.6 °F - 23.0 °F 30% 30.16 in 10.0 mi NE 6.9 mph - N/A   Clear
8:55 PM 50.0 °F - 23.0 °F 35% 30.16 in 10.0 mi NE 6.9 mph - N/A   Clear
9:15 PM 48.2 °F - 24.8 °F 40% 30.17 in 10.0 mi NE 8.1 mph - N/A   Clear
9:35 PM 48.2 °F - 24.8 °F 40% 30.17 in 10.0 mi NE 6.9 mph - N/A   Clear
9:55 PM 46.4 °F 42.9 °F 24.8 °F 43% 30.18 in 10.0 mi NE 6.9 mph - N/A   Clear
10:15 PM 44.6 °F 42.2 °F 24.8 °F 46% 30.18 in 10.0 mi NE 4.6 mph - N/A   Clear
10:55 PM 44.6 °F 41.4 °F 24.8 °F 46% 30.19 in 10.0 mi NE 5.8 mph - N/A   Clear
11:15 PM 42.8 °F 40.1 °F 24.8 °F 49% 30.19 in 10.0 mi NE 4.6 mph - N/A   Clear
11:35 PM 42.8 °F 40.1 °F 24.8 °F 49% 30.18 in 10.0 mi ENE 4.6 mph - N/A   Clear